Voltar ao catálogo

SL-14 DEB

AtivoPO
NORAD 45280·DEBRIS·🇷🇺 Russia

Lançado Aug 15, 1991 de Plesetsk Cosmodrome

Loading…

Próximas Passagens (próximas 24 horas)

TLE

AtualizadoSource: Space-Track

Época: Sep 13, 2026, 23:23 UTC

1 45280U 91056S   26256.97487690  .00000866  00000-0  20565-2 0  9991
2 45280  82.5844  80.4582 0015119 103.7208 256.5601 13.22068225316845

Acompanhe SL-14 DEB em tempo real com AllMySat

Download on the App Store